STARLINK-38070

Last updated on Sun Aug 09 2026 00:02:04 GMT+0000 (Coordinated Universal Time)

1 69990U 26159R 26220.54052680 .00129431 00000+0 85462-3 0 9995 2 69990 97.2831 60.5342 0000946 101.4263 258.7108 15.75215145 5700
UTC large
Height (km)
Speed (km/s)
/
Latitude / Longitude
Inclination (degrees)
Orbital Period (minutes)
Azimuth
Elevation
Range (km)
Doppler Factor

Next 0 passes for location: London (51.5072 / 0.1276)

No passes found over London.
STARLINK-38070